Bellefontaine, OH

3:25 AM EDT on July 21, 2017 (GMT -0400)
Bellefontaine

Weather History for KEDJ - September, 2012

Change the Weather History Date:

Sunday, September 2, 2012

  Actual Average (KDLZ) Record (KDLZ)
Temperature  
Mean Temperature 74 °F -  
Max Temperature 80 °F 79 °F 97 °F (1953)
Min Temperature 69 °F 56 °F 43 °F (1946)
Cooling Degree Days 10    
Growing Degree Days 24 (Base 50)    
Moisture  
Dew Point 72 °F    
Average Humidity 92    
Maximum Humidity 100    
Minimum Humidity 74    
Precipitation  
Precipitation 0.33 in - - ()
Sea Level Pressure  
Sea Level Pressure 29.96 in    
Wind  
Wind Speed 7 mph (ESE)    
Max Wind Speed 14 mph    
Max Gust Speed 17 mph    
Averages and records for this station are not official NWS values.
T = Trace of Precipitation, MM = Missing Value Source: NWS Daily Summary

Daily Weather History Graph

Daily Weather History Graph

Search for Another Location

Airport or City:

Trip Planner

Search our weather history database for the weather conditions in past years. The results will help you decide how hot, cold, wet, or windy it might be!

Date:

Astronomy

Sep. 02, 2012 Rise Set
Actual Time 7:04 AM EDT 8:04 PM EDT
Civil Twilight 6:36 AM EDT 8:32 PM EDT
Nautical Twilight 6:03 AM EDT 9:05 PM EDT
Astronomical Twilight 5:28 AM EDT 9:40 PM EDT
Moon 8:51 PM EDT (9/2) 9:12 AM EDT (9/2)
Length of Visible Light 13h 56m
Length of Day
13h 00m
Waning Gibbous, 95% of the Moon is Illuminated
Sep 2
Waning Gibbous
Sep 8
Last Quarter
Sep 15
New
Sep 22
First Quarter
Sep 29
Full

Hourly Weather History & Observations

Time (EDT) Temp. Heat Index Dew Point Humidity Pressure Visibility Wind Dir Wind Speed Gust Speed Precip Events Conditions
12:10 AM 71.6 °F - 71.6 °F 100% 30.03 in - East 6.9 mph - 0.00 in   Unknown
12:30 AM 71.6 °F - 71.6 °F 100% 30.03 in - ESE 5.8 mph - 0.00 in   Unknown
12:50 AM 71.6 °F - 71.6 °F 100% 30.02 in - ESE 8.1 mph - 0.00 in   Unknown
1:10 AM 71.6 °F - 71.6 °F 100% 30.01 in - East 6.9 mph - 0.00 in   Mostly Cloudy
1:30 AM 71.6 °F - 71.6 °F 100% 30.01 in - ESE 8.1 mph - 0.00 in   Unknown
1:50 AM 71.6 °F - 71.6 °F 100% 30.01 in - ESE 8.1 mph - 0.00 in   Unknown
2:10 AM 71.6 °F - 71.6 °F 100% 30.00 in - SE 5.8 mph - 0.00 in   Overcast
2:30 AM 71.6 °F - 71.6 °F 100% 30.00 in - ESE 5.8 mph - 0.00 in   Overcast
2:50 AM 71.6 °F - 71.6 °F 100% 30.00 in - SE 9.2 mph - 0.00 in   Mostly Cloudy
3:10 AM 71.6 °F - 71.6 °F 100% 30.00 in - SE 8.1 mph - 0.00 in   Unknown
3:30 AM 71.6 °F - 71.6 °F 100% 30.00 in - SE 3.5 mph - 0.06 in   Unknown
3:50 AM 71.6 °F - 71.6 °F 100% 29.98 in - East 8.1 mph - 0.33 in   Unknown
4:10 AM 71.6 °F - 71.6 °F 100% 29.98 in - East 3.5 mph - 0.00 in   Unknown
4:30 AM 71.6 °F - 71.6 °F 100% 29.98 in - NE 3.5 mph - 0.00 in   Unknown
4:50 AM 71.6 °F - 71.6 °F 100% 29.98 in - ESE 3.5 mph - 0.00 in   Unknown
5:10 AM 71.6 °F - 71.6 °F 100% 29.98 in - East 4.6 mph - 0.00 in   Unknown
5:30 AM 71.6 °F - 71.6 °F 100% 29.98 in - East 4.6 mph - 0.00 in   Unknown
5:50 AM 71.6 °F - 71.6 °F 100% 29.99 in - ESE 4.6 mph - 0.00 in   Unknown
6:10 AM 71.6 °F - 71.6 °F 100% 29.99 in - East 6.9 mph - 0.00 in   Unknown
6:30 AM 71.6 °F - 71.6 °F 100% 29.99 in - East 5.8 mph - 0.00 in   Unknown
6:50 AM 71.6 °F - 71.6 °F 100% 29.99 in - East 8.1 mph - 0.00 in   Overcast
7:10 AM 69.8 °F - 69.8 °F 100% 29.99 in - East 6.9 mph - 0.00 in   Overcast
7:30 AM 69.8 °F - 69.8 °F 100% 29.99 in - ESE 5.8 mph - 0.00 in   Unknown
7:50 AM 69.8 °F - 69.8 °F 100% 29.99 in - ESE 8.1 mph - 0.00 in   Unknown
8:10 AM 71.6 °F - 71.6 °F 100% 29.98 in - ESE 9.2 mph - 0.00 in   Unknown
8:30 AM 71.6 °F - 71.6 °F 100% 29.98 in - SE 10.4 mph - 0.00 in   Unknown
8:50 AM 71.6 °F - 71.6 °F 100% 29.97 in - SE 10.4 mph - 0.00 in   Unknown
9:10 AM 71.6 °F - 71.6 °F 100% 29.98 in - SE 11.5 mph - 0.00 in   Unknown
9:30 AM 73.4 °F - 71.6 °F 94% 29.98 in - SE 10.4 mph - 0.00 in   Unknown
9:50 AM 73.4 °F - 73.4 °F 100% 29.98 in - SE 10.4 mph - 0.00 in   Mostly Cloudy
10:10 AM 73.4 °F - 73.4 °F 100% 29.98 in - SE 10.4 mph 16.1 mph 0.00 in   Mostly Cloudy
10:30 AM 73.4 °F - 73.4 °F 100% 29.98 in - SE 13.8 mph - 0.00 in   Overcast
10:50 AM 73.4 °F - 73.4 °F 100% 29.98 in - SE 10.4 mph 16.1 mph 0.00 in   Overcast
11:10 AM 73.4 °F - 71.6 °F 94% 29.97 in - SE 9.2 mph - 0.00 in   Mostly Cloudy
11:30 AM 73.4 °F - 73.4 °F 100% 29.98 in - SE 8.1 mph - 0.00 in   Overcast
12:10 PM 75.2 °F - 71.6 °F 89% 29.98 in - SE 10.4 mph - 0.00 in   Overcast
12:30 PM 75.2 °F - 73.4 °F 94% 29.98 in - SE 10.4 mph - 0.00 in   Overcast
12:50 PM 75.2 °F - 73.4 °F 94% 29.97 in - SE 12.7 mph 17.3 mph 0.00 in   Overcast
1:10 PM 75.2 °F - 71.6 °F 89% 29.97 in - SE 9.2 mph - 0.00 in   Overcast
1:30 PM 75.2 °F - 71.6 °F 89% 29.96 in - SE 8.1 mph - 0.00 in   Overcast
1:50 PM 77.0 °F - 71.6 °F 83% 29.96 in - ESE 6.9 mph - 0.00 in   Unknown
2:10 PM 77.0 °F - 71.6 °F 83% 29.95 in - East 6.9 mph - 0.00 in   Overcast
2:30 PM 77.0 °F - 71.6 °F 83% 29.95 in - ESE 8.1 mph - 0.00 in   Overcast
2:50 PM 77.0 °F - 71.6 °F 83% 29.95 in - ESE 5.8 mph - 0.00 in   Overcast
3:10 PM 78.8 °F - 71.6 °F 78% 29.94 in - ESE 8.1 mph - 0.00 in   Overcast
3:30 PM 78.8 °F - 71.6 °F 78% 29.92 in - East 8.1 mph - 0.00 in   Scattered Clouds
3:50 PM 78.8 °F - 71.6 °F 78% 29.92 in - ENE 8.1 mph - 0.00 in   Clear
4:10 PM 78.8 °F - 71.6 °F 78% 29.91 in - East 5.8 mph - 0.00 in   Clear
4:30 PM 78.8 °F - 71.6 °F 78% 29.91 in - East 9.2 mph - 0.00 in   Partly Cloudy
4:50 PM 78.8 °F - 71.6 °F 78% 29.90 in - East 8.1 mph - 0.00 in   Clear
5:10 PM 80.6 °F 84.6 °F 71.6 °F 74% 29.90 in - East 6.9 mph - 0.00 in   Clear
5:30 PM 78.8 °F - 71.6 °F 78% 29.90 in - East 5.8 mph - 0.00 in   Clear
5:50 PM 78.8 °F - 71.6 °F 78% 29.90 in - East 6.9 mph - 0.00 in   Clear
6:10 PM 78.8 °F - 71.6 °F 78% 29.90 in - East 5.8 mph - 0.00 in   Clear
6:30 PM 78.8 °F - 71.6 °F 78% 29.89 in - East 5.8 mph - 0.00 in   Clear
6:50 PM 78.8 °F - 71.6 °F 78% 29.89 in - ENE 6.9 mph - 0.00 in   Clear
7:10 PM 77.0 °F - 71.6 °F 83% 29.90 in - ENE 5.8 mph - 0.00 in   Clear
7:30 PM 77.0 °F - 71.6 °F 83% 29.90 in - ENE 6.9 mph - 0.00 in   Clear
7:50 PM 75.2 °F - 71.6 °F 89% 29.90 in - ENE 6.9 mph - 0.00 in   Unknown
8:10 PM 75.2 °F - 71.6 °F 89% 29.90 in - East 9.2 mph - 0.00 in   Unknown
8:30 PM 75.2 °F - 71.6 °F 89% 29.90 in - East 9.2 mph - 0.00 in   Unknown
8:50 PM 75.2 °F - 71.6 °F 89% 29.90 in - East 9.2 mph - 0.00 in   Unknown
9:10 PM 75.2 °F - 71.6 °F 89% 29.90 in - East 6.9 mph - 0.00 in   Unknown
9:30 PM 75.2 °F - 71.6 °F 89% 29.90 in - East 9.2 mph - 0.00 in   Unknown
9:50 PM 75.2 °F - 71.6 °F 89% 29.91 in - East 8.1 mph - 0.00 in   Unknown
10:10 PM 75.2 °F - 71.6 °F 89% 29.91 in - East 5.8 mph - 0.00 in   Unknown
10:30 PM 75.2 °F - 71.6 °F 89% 29.91 in - East 8.1 mph - 0.00 in   Unknown
10:50 PM 73.4 °F - 71.6 °F 94% 29.92 in - East 6.9 mph - 0.00 in   Unknown
11:10 PM 73.4 °F - 71.6 °F 94% 29.92 in - East 6.9 mph - 0.00 in   Unknown
11:30 PM 73.4 °F - 71.6 °F 94% 29.92 in - East 5.8 mph - 0.00 in   Unknown
11:50 PM 73.4 °F - 71.6 °F 94% 29.91 in - East 5.8 mph - 0.00 in   Unknown